[[{"header":{"parameterUnit":"m.s-1","parameterCategory":2,"la1":30.2991,"la2":30.254,"lo1":-89.0895,"lo2":-89.0444,"dy":0.0017,"dx":0.0017,"nx":28,"ny":28,"refTime":"2024-05-23T03:00:00:Z","depth":"0","parameterNumber":2,"parameterNumberName":"U-component_of_CURRENTS"},"data":[0,0,0,0,0,0,0,0,0,0,0,0,0,0,0,0,0,0,0,0,0,0,0,0,0,0,0,0,0,0,0,0,0,0,0,0,0,0,0,0,0,0,0,0,0,0,0,0,0,0,0,0,0,0,0,0,0,0,0.3819,0.3819,0,0.384,0.384,0.384,0.3822,0.3822,0.3821,0.3821,0.3814,0.3814,0.3815,0,0,0,0,0,0,0,0,0,0,0,0,0,0.3775,0.3776,0.3819,0.3819,0.3819,0.384,0.384,0.384,0.3823,0.3822,0.3821,0.382,0.3814,0.3814,0.3815,0,0,0,0,0,0,0,0,0,0,0,0,0,0.3793,0.3776,0.3819,0.3814,0.3814,0.384,0.384,0.384,0.3823,0.3822,0.3821,0.382,0.3813,0.3814,0.3815,0.3837,0,0,0.3816,0.3817,0,0,0,0,0,0,0,0,0.3792,0.3795,0.3814,0.3815,0.3814,0.3829,0.3822,0.3838,0.3823,0.3818,0.3821,0.382,0.3818,0.3818,0.3822,0.3836,0.3836,0.3816,0.3817,0.3817,0.3817,0,0,0,0,0,0,0,0.3791,0.3794,0.3826,0.3815,0.3815,0.3816,0.3817,0.3825,0.3821,0.3818,0.3817,0.3822,0.3817,0.3822,0.3822,0.3836,0.3816,0.3817,0.3817,0.3818,0.3926,0.3928,0,0,0,0,0,0,0.3792,0.3793,0.3825,0.3826,0.3803,0.3817,0.3819,0.3824,0.3822,0.3821,0.3823,0.3822,0.3821,0.3821,0.3822,0.3888,0.3817,0.3818,0.3818,0.3923,0.3926,0.3929,0,0,0,0,0,0,0.3791,0.3795,0.3824,0.3811,0.3815,0.3819,0.3825,0.3825,0.3837,0.3826,0.3824,0.3836,0.3821,0.3821,0.3844,0.3886,0.3818,0.3818,0.392,0.3924,0.3928,0.3995,0,0,0,0,0,0,0.379,0.3794,0.3799,0.3811,0.3816,0.385,0.3826,0.3826,0.3841,0.3839,0.3836,0.3834,0.382,0.3843,0.3845,0.3886,0.3819,0.3917,0.3922,0.3927,0.399,0.4001,0.401,0,0,0,0,0,0.3788,0.38,0.38,0.3804,0.3823,0.3852,0.3855,0.3853,0.3843,0.3858,0.3857,0.3835,0.3875,0.3845,0.3846,0.3889,0.3915,0.3921,0.3926,0.3985,0.3999,0.401,0,0,0,0,0,0,0.3782,0.38,0.3799,0.3815,0.3837,0.3849,0.3861,0.3864,0.3875,0.3873,0.3857,0.3856,0.3901,0.3888,0.3856,0.3938,0.3896,0.3902,0.3941,0.3953,0.3963,0.3974,0.3819,0,0,0,0,0,0.3785,0.3798,0.3818,0.3833,0.3845,0.3857,0.3868,0.3873,0.3885,0.3889,0.3888,0.3898,0.3926,0.3931,0.395,0.3983,0.4004,0.4017,0.4027,0.4035,0.4048,0.4127,0.4146,0.3948,0.3948,0.3948,0,0,0.3785,0.3798,0.3804,0.3833,0.3847,0.3878,0.3861,0.3889,0.392,0.3887,0.3924,0.3935,0.3947,0.3992,0.401,0.3982,0.4104,0.4042,0.4049,0.4058,0.4135,0.4154,0.4171,0.3952,0.3951,0.395,0,0,0.3801,0.3808,0.3828,0.3853,0.3885,0.3898,0.3911,0.3935,0.3951,0.3987,0.3987,0.402,0.4043,0.4067,0.4081,0.4161,0.4163,0.4173,0.4223,0.43,0.4316,0.4331,0.4384,0.4403,0.4169,0.4169,0.417,0,0.3802,0.3828,0.3841,0.3874,0.3898,0.3911,0.3947,0.3973,0.4003,0.4037,0.4007,0.4088,0.4083,0.4165,0.4188,0.4184,0.4223,0.4169,0.4313,0.4328,0.4342,0.4392,0.4412,0.4173,0.4173,0.4172,0.4172,0,0.3836,0.3862,0.388,0.3924,0.3955,0.3989,0.4028,0.4068,0.4082,0.4111,0.4191,0.4192,0.4243,0.4251,0.4236,0.4346,0.4341,0.4322,0.4277,0.4366,0.4413,0.4433,0.4179,0.4178,0.4176,0.4175,0,0,0.3823,0.389,0.3895,0.3927,0.3985,0.4014,0.4085,0.4157,0.4218,0.4245,0.4331,0.4365,0.4375,0.4393,0.4393,0.4441,0.4559,0.4424,0.4426,0.4469,0.473,0.4692,0.4709,0.4573,0.4577,0.458,0.4722,0,0.3846,0.3911,0.394,0.4006,0.4046,0.4094,0.4159,0.4231,0.4286,0.4373,0.441,0.448,0.4429,0.446,0.451,0.4563,0.4616,0.4522,0.4644,0.4648,0.4597,0.4733,0.4559,0.467,0.4741,0.4744,0.4747,0,0.3866,0.3911,0.3973,0.4061,0.4082,0.4121,0.4237,0.4305,0.4436,0.4485,0.4568,0.4602,0.4699,0.463,0.4763,0.4713,0.4731,0.4748,0.4754,0.471,0.4648,0.4594,0.4702,0.4577,0.4777,0.4774,0.4772,0,0.385,0.3933,0.398,0.4008,0.4107,0.415,0.4212,0.4336,0.4435,0.4568,0.4665,0.4751,0.4837,0.4877,0.4911,0.4858,0.5054,0.4981,0.4961,0.4957,0.4828,0.4807,0.4822,0.5076,0.5076,0.5076,0.5075,0,0.386,0.3901,0.3971,0.3999,0.4089,0.4147,0.4267,0.4351,0.4504,0.4631,0.4723,0.4843,0.4911,0.5022,0.4999,0.5067,0.5132,0.501,0.5013,0.4847,0.4826,0.4723,0.4666,0.5081,0.508,0.5079,0.5078,0,0.3845,0.3883,0.3955,0.4046,0.4083,0.415,0.4318,0.4395,0.4552,0.473,0.4786,0.498,0.5109,0.5165,0.5255,0.5207,0.51,0.5233,0.5025,0.5,0.4821,0.4774,0.4632,0.4494,0.5235,0.5235,0.5235,0,0.3846,0.3874,0.3985,0.4025,0.4064,0.4176,0.4243,0.4404,0.4492,0.4794,0.4862,0.5086,0.5193,0.5351,0.5308,0.5309,0.512,0.5136,0.4988,0.483,0.478,0.4563,0.444,0.4843,0.484,0.4837,0.4835,0,0.3859,0.3889,0.3944,0.4028,0.4087,0.4183,0.4284,0.4375,0.4557,0.4706,0.4893,0.5022,0.5225,0.5171,0.5222,0.5184,0.489,0.5084,0.4983,0.4545,0.4249,0.411,0.472,0.4813,0.4815,0.4817,0.4818,0.4819,0.3864,0.3901,0.3955,0.4022,0.4086,0.4129,0.4154,0.4257,0.4387,0.4528,0.4762,0.485,0.4972,0.5026,0.4965,0.4789,0.4758,0.4625,0.4605,0.4418,0.4202,0.4765,0.482,0.4822,0.4824,0.4825,0.4827,0,0.3849,0.3876,0.3938,0.3986,0.3986,0.4052,0.4116,0.4085,0.4125,0.43,0.4423,0.4512,0.4505,0.4537,0.4495,0.4337,0.4089,0.4215,0.3866,0.3787,0.4359,0.4259,0.412,0.412,0.412,0.412,0.412,0.412,0.3843,0.3859,0.3871,0.3852,0.3864,0.38,0.3787,0.3757,0.3813,0.3819,0.3837,0.3969,0.4189,0.4253,0.4095,0.3988,0.3659,0.3503,0.3487,0.3904,0.3938,0.3971,0.3863,0.3643,0.3642,0.2726,0.2719,0.2715]},{"header":{"parameterUnit":"m.s-1","parameterCategory":2,"la1":30.2991,"la2":30.254,"lo1":-89.0895,"lo2":-89.0444,"dy":0.0017,"dx":0.0017,"nx":28,"ny":28,"refTime":"2024-05-23T03:00:00:Z","depth":"0","parameterNumber":3,"parameterNumberName":"V-component_of_CURRENTS"},"data":[0,0,0,0,0,0,0,0,0,0,0,0,0,0,0,0,0,0,0,0,0,0,0,0,0,0,0,0,0,0,0,0,0,0,0,0,0,0,0,0,0,0,0,0,0,0,0,0,0,0,0,0,0,0,0,0,0,0,0.0296,0.0295,0,0.0236,0.0235,0.0234,0.0186,0.0186,0.0185,0.0185,0.0074,0.0071,0.0068,0,0,0,0,0,0,0,0,0,0,0,0,0,0.0303,0.0303,0.0296,0.0295,0.0294,0.0236,0.0235,0.0234,0.0186,0.0186,0.0185,0.0185,0.0075,0.0071,0.0068,0,0,0,0,0,0,0,0,0,0,0,0,0,0.0275,0.0303,0.0296,0.0265,0.0262,0.0236,0.0235,0.0233,0.0186,0.0186,0.0185,0.0185,0.0076,0.0072,0.0068,0.0051,0,0,0.0055,0.0054,0,0,0,0,0,0,0,0,0.0277,0.0275,0.027,0.0267,0.0264,0.022,0.0197,0.0171,0.0186,0.0213,0.0185,0.0185,0.0119,0.0112,0.0099,0.0046,0.0041,0.0055,0.0052,0.0051,0.005,0,0,0,0,0,0,0,0.0279,0.0277,0.027,0.027,0.0266,0.0232,0.0228,0.0191,0.0167,0.021,0.0207,0.0204,0.0117,0.0103,0.0096,0.004,0.0055,0.0051,0.0049,0.0047,-0.0013,-0.0012,0,0,0,0,0,0,0.0295,0.0279,0.0272,0.0268,0.0272,0.0233,0.0228,0.0232,0.0168,0.0159,0.0205,0.0202,0.011,0.0101,0.0092,0.0097,0.0051,0.0047,0.0045,-0.0014,-0.0013,-0.0012,0,0,0,0,0,0,0.0295,0.0295,0.0274,0.0273,0.0268,0.0234,0.0239,0.0232,0.0223,0.0165,0.0154,0.0204,0.011,0.0098,0.0075,0.0092,0.0045,0.0041,-0.0015,-0.0013,-0.0012,0.009,0,0,0,0,0,0,0.0296,0.0296,0.0302,0.0275,0.0269,0.0273,0.0239,0.0231,0.0222,0.0218,0.016,0.0149,0.0108,0.0081,0.0071,0.0085,0.0038,-0.0016,-0.0014,-0.0012,0.0085,0.0094,0.0102,0,0,0,0,0,0.0297,0.0316,0.0303,0.0302,0.028,0.0274,0.0268,0.0239,0.0223,0.0228,0.0191,0.0151,0.0083,0.0079,0.0066,0.008,-0.0016,-0.0014,-0.0013,0.0082,0.0093,0.0102,0,0,0,0,0,0,0.032,0.0312,0.0298,0.0312,0.0298,0.0267,0.0267,0.0248,0.0223,0.0217,0.0161,0.0148,0.0133,0.0094,0.009,0.0067,0.0027,0.0026,0.0103,0.0113,0.0121,0.0146,0.0035,0,0,0,0,0,0.033,0.0341,0.0324,0.0333,0.0331,0.0299,0.0292,0.0275,0.025,0.0238,0.02,0.0159,0.013,0.0113,0.0077,0.0066,0.0028,0.0066,0.0074,0.0082,0.0094,0.0058,0.0065,-0.0005,-0.0005,-0.0006,0,0,0.0341,0.0337,0.0343,0.0339,0.0323,0.0334,0.0294,0.0292,0.0304,0.0229,0.023,0.0184,0.0133,0.0122,0.0111,0.0093,0.0082,0.0084,0.0091,0.0099,0.0061,0.0068,0.0074,-0.0004,-0.0004,-0.0005,0,0,0.0377,0.0367,0.0392,0.039,0.038,0.036,0.0366,0.0342,0.0336,0.0326,0.0281,0.0251,0.0202,0.0175,0.0153,0.0185,0.0126,0.0172,0.0236,0.0201,0.0207,0.0211,0.0176,0.0176,0.0178,0.0178,0.0179,0,0.0388,0.0422,0.0397,0.0422,0.0429,0.0381,0.0411,0.0398,0.0371,0.0378,0.034,0.0283,0.0228,0.023,0.0235,0.0204,0.0176,0.0204,0.0213,0.0217,0.022,0.0182,0.0181,0.0184,0.0183,0.0182,0.0182,0,0.0449,0.0473,0.0489,0.0506,0.0506,0.0524,0.0506,0.0511,0.0485,0.0466,0.0459,0.0386,0.0355,0.033,0.0287,0.0291,0.0262,0.0227,0.0192,0.0233,0.019,0.0188,0.0191,0.0189,0.0188,0.0186,0,0,0.0485,0.0526,0.0531,0.0565,0.0557,0.0571,0.0593,0.0607,0.0647,0.0586,0.0625,0.0544,0.0498,0.0471,0.0413,0.0378,0.0358,0.0319,0.0314,0.0291,0.0286,0.0262,0.0256,0.0329,0.0329,0.0329,0.0249,0,0.0541,0.0621,0.0615,0.0682,0.0723,0.0698,0.0737,0.0739,0.0724,0.0748,0.0668,0.0671,0.0556,0.0554,0.0493,0.0408,0.0356,0.0383,0.0243,0.0239,0.0218,0.0254,0.0286,0.0217,0.0246,0.0245,0.0245,0,0.0606,0.0656,0.0737,0.0807,0.0823,0.0848,0.0908,0.0941,0.0948,0.0941,0.0903,0.0841,0.0783,0.0681,0.0528,0.0554,0.0423,0.0338,0.0333,0.0275,0.021,0.0178,0.0211,-0.002,0.024,0.0241,0.0241,0,0.0666,0.0741,0.0815,0.0835,0.0898,0.0937,0.0973,0.1001,0.1074,0.1074,0.1123,0.1004,0.0993,0.0809,0.0604,0.0573,0.0439,0.037,0.0219,0.0215,0.0197,0.0192,-0.0003,0.0249,0.0249,0.025,0.025,0,0.074,0.0801,0.0855,0.0903,0.1023,0.1025,0.1151,0.1177,0.1241,0.136,0.1235,0.1306,0.1028,0.0913,0.0676,0.0455,0.0482,0.0241,0.0199,0.0233,0.0232,-0.0008,-0.0127,0.0247,0.0247,0.0248,0.0248,0,0.0805,0.0833,0.0937,0.1019,0.106,0.1151,0.1295,0.139,0.1437,0.1591,0.1608,0.1545,0.1399,0.1104,0.0828,0.0589,0.0233,0.0258,0.0315,0.028,-0.0089,-0.0201,-0.0428,-0.0505,0.008,0.0079,0.0078,0,0.0849,0.0908,0.1035,0.1118,0.1162,0.1298,0.1407,0.1487,0.1603,0.1763,0.1853,0.1769,0.1745,0.1322,0.0871,0.0451,0.0222,0.0203,0.0131,-0.0094,-0.0252,-0.034,-0.0395,0.0143,0.0142,0.0142,0.0142,0,0.0946,0.0982,0.1073,0.1242,0.1362,0.1524,0.1681,0.1807,0.1936,0.2083,0.2253,0.2258,0.1871,0.1463,0.0872,0.0585,0.0067,0.0185,-0.0061,-0.0223,-0.0318,-0.0416,0.0171,0.014,0.014,0.0141,0.0141,0.0141,0.102,0.1105,0.1219,0.1377,0.1529,0.1723,0.1872,0.2052,0.2283,0.2519,0.2526,0.2575,0.1991,0.1199,0.0782,0.0034,0.0027,-0.0202,-0.032,-0.039,-0.0465,0.0118,0.0045,0.0045,0.0044,0.0044,0.0044,0,0.1107,0.12,0.1351,0.1542,0.1709,0.1776,0.2038,0.2199,0.248,0.2686,0.2835,0.2569,0.1869,0.1141,0.0131,-0.0387,-0.0547,-0.0661,-0.0789,-0.082,-0.0312,-0.031,-0.0447,-0.0447,-0.0447,-0.0446,-0.0446,-0.0446,0.1162,0.1303,0.1372,0.1648,0.179,0.2031,0.2185,0.2438,0.2625,0.2871,0.2897,0.2866,0.2297,0.0564,-0.0621,-0.088,-0.1198,-0.1284,-0.1453,-0.1132,-0.1098,-0.1067,-0.1095,-0.1395,-0.1396,-0.1882,-0.1887,-0.1891]}],[{"header":{"parameterUnit":"m.s-1","parameterCategory":2,"la1":30.2991,"la2":30.254,"lo1":-89.0895,"lo2":-89.0444,"dy":0.0017,"dx":0.0017,"nx":28,"ny":28,"refTime":"2024-05-23T03:00:00:Z","depth":"2","parameterNumber":2,"parameterNumberName":"U-component_of_CURRENTS"},"data":[0,0,0,0,0,0,0,0,0,0,0,0,0,0,0,0,0,0,0,0,0,0,0,0,0,0,0,0,0,0,0,0,0,0,0,0,0,0,0,0,0,0,0,0,0,0,0,0,0,0,0,0,0,0,0,0,0,0,0.3324,0.3325,0,0.3355,0.3355,0.3356,0.3356,0.3356,0.3356,0.3356,0.3369,0.337,0.3371,0,0,0,0,0,0,0,0,0,0,0,0,0,0.3275,0.3275,0.3324,0.3325,0.3325,0.3355,0.3355,0.3356,0.3356,0.3356,0.3356,0.3356,0.3369,0.337,0.3371,0,0,0,0,0,0,0,0,0,0,0,0,0,0.3298,0.3276,0.3324,0.3331,0.3332,0.3355,0.3355,0.3356,0.3356,0.3356,0.3356,0.3355,0.3369,0.337,0.3371,0.3383,0,0,0.3373,0.3374,0,0,0,0,0,0,0,0,0.3297,0.33,0.3329,0.333,0.3331,0.3353,0.3343,0.3364,0.3357,0.3345,0.3356,0.3355,0.3364,0.3365,0.3369,0.3383,0.3384,0.3373,0.3374,0.3374,0.3375,0,0,0,0,0,0,0,0.3295,0.3299,0.3335,0.333,0.3331,0.3335,0.3338,0.3347,0.3354,0.3346,0.3347,0.3353,0.3364,0.3369,0.337,0.3384,0.3373,0.3374,0.3375,0.3375,0.3481,0.3483,0,0,0,0,0,0,0.3295,0.3297,0.3334,0.3336,0.3315,0.3336,0.3339,0.3345,0.3355,0.3356,0.3353,0.3353,0.3367,0.3369,0.337,0.344,0.3374,0.3375,0.3376,0.3478,0.3481,0.3484,0,0,0,0,0,0,0.3294,0.3298,0.3333,0.3318,0.3323,0.3338,0.3344,0.3346,0.3365,0.3361,0.3362,0.3372,0.3367,0.3369,0.3399,0.3438,0.3376,0.3376,0.3476,0.3479,0.3482,0.3544,0,0,0,0,0,0,0.3292,0.3297,0.3306,0.3318,0.3324,0.3359,0.3345,0.3347,0.3369,0.3369,0.3377,0.3377,0.3367,0.3398,0.34,0.3438,0.3377,0.3473,0.3477,0.3481,0.3539,0.3549,0.3558,0,0,0,0,0,0.329,0.3301,0.3306,0.3311,0.3334,0.336,0.3364,0.3371,0.337,0.3385,0.3395,0.3377,0.3427,0.3401,0.3402,0.3442,0.3471,0.3476,0.3481,0.3535,0.3547,0.3558,0,0,0,0,0,0,0.3282,0.3303,0.3308,0.3324,0.3347,0.3361,0.3376,0.3383,0.3403,0.3407,0.3399,0.34,0.3447,0.3438,0.3409,0.3488,0.345,0.3455,0.349,0.3502,0.3511,0.3523,0.3378,0,0,0,0,0,0.3285,0.3301,0.3322,0.3338,0.3351,0.3369,0.3382,0.3392,0.3408,0.3417,0.3424,0.3441,0.3468,0.3479,0.3497,0.3532,0.3549,0.3563,0.3573,0.358,0.3594,0.3663,0.368,0.35,0.35,0.35,0,0,0.3286,0.3301,0.3309,0.3338,0.3355,0.3383,0.3376,0.3406,0.3436,0.3416,0.3459,0.3474,0.3487,0.3532,0.3552,0.3529,0.3641,0.3587,0.3593,0.3603,0.367,0.3688,0.3703,0.3504,0.3503,0.3503,0,0,0.3297,0.3311,0.333,0.3354,0.339,0.3403,0.3417,0.3446,0.3468,0.3508,0.3514,0.3552,0.3579,0.3604,0.3618,0.3691,0.3692,0.3702,0.3754,0.382,0.3836,0.3849,0.3891,0.3908,0.3702,0.3702,0.3702,0,0.3299,0.3323,0.3341,0.337,0.3394,0.3416,0.3447,0.3476,0.3513,0.3549,0.3531,0.3616,0.3616,0.3692,0.3716,0.3712,0.3745,0.3704,0.3832,0.3846,0.3859,0.3898,0.3916,0.3706,0.3705,0.3705,0.3705,0,0.3323,0.335,0.3366,0.3409,0.3439,0.347,0.3513,0.3557,0.3582,0.3613,0.3696,0.3707,0.3762,0.3771,0.3761,0.3863,0.3855,0.3838,0.38,0.3881,0.3917,0.3934,0.3711,0.371,0.3709,0.3708,0,0,0.3306,0.3369,0.3376,0.3402,0.3463,0.3486,0.3559,0.3629,0.3687,0.3731,0.381,0.3857,0.3879,0.3898,0.3904,0.395,0.4056,0.3937,0.3939,0.3971,0.4203,0.4145,0.4158,0.4069,0.4072,0.4075,0.4191,0,0.332,0.3371,0.3405,0.3459,0.349,0.3547,0.3611,0.3683,0.3744,0.3827,0.3878,0.3946,0.3924,0.3957,0.4011,0.4056,0.4106,0.4026,0.4126,0.4129,0.4063,0.4178,0.3834,0.3904,0.4207,0.421,0.4212,0,0.3326,0.3363,0.3414,0.3491,0.3511,0.3551,0.3663,0.3727,0.3858,0.3911,0.4005,0.4045,0.4147,0.4098,0.4232,0.4189,0.4209,0.4224,0.4228,0.4166,0.4104,0.3875,0.3924,0.4241,0.4239,0.4236,0.4235,0,0.329,0.3365,0.3403,0.3428,0.3521,0.3569,0.3631,0.3757,0.384,0.3977,0.4055,0.4165,0.4247,0.4299,0.435,0.4307,0.4482,0.4419,0.4383,0.4378,0.41,0.4065,0.451,0.451,0.4509,0.4509,0.4509,0,0.3282,0.3309,0.3389,0.3408,0.3475,0.3552,0.3653,0.3737,0.3886,0.3987,0.4099,0.4197,0.4309,0.4416,0.4416,0.4479,0.4547,0.4426,0.4422,0.4112,0.4078,0.4373,0.4356,0.4513,0.4512,0.4511,0.4511,0,0.3228,0.3281,0.3324,0.3419,0.3457,0.3505,0.3661,0.373,0.3888,0.4029,0.4082,0.4281,0.4417,0.4508,0.4613,0.4578,0.4614,0.4606,0.4231,0.4182,0.4439,0.4424,0.4578,0.4577,0.4576,0.4576,0.4576,0,0.3201,0.3219,0.3312,0.3344,0.3386,0.3483,0.3545,0.3709,0.3789,0.4056,0.4105,0.4325,0.4425,0.4594,0.4577,0.4601,0.465,0.428,0.4127,0.4475,0.4456,0.4441,0.4427,0.3774,0.3767,0.3762,0.3757,0,0.3155,0.3187,0.3225,0.3285,0.3341,0.3408,0.3512,0.3578,0.3769,0.3897,0.4059,0.4175,0.4376,0.4273,0.4354,0.4302,0.4247,0.4167,0.4653,0.3821,0.373,0.3707,0.3717,0.3707,0.3712,0.3716,0.3718,0.372,0.3112,0.3119,0.3169,0.3205,0.3267,0.3289,0.3301,0.3412,0.3514,0.3645,0.3862,0.3925,0.401,0.397,0.3853,0.3772,0.4053,0.3836,0.3848,0.3867,0.3764,0.3679,0.3625,0.3629,0.3633,0.3637,0.364,0,0.3039,0.3048,0.3085,0.3102,0.309,0.3174,0.3233,0.3201,0.3229,0.3397,0.3507,0.3308,0.3286,0.336,0.317,0.3178,0.3086,0.3029,0.2861,0.2918,0.2967,0.281,0.2421,0.2417,0.2413,0.2409,0,0,0.2997,0.2985,0.2981,0.2912,0.292,0.2837,0.2831,0.2826,0.2892,0.2876,0.2899,0.318,0.3309,0.2834,0.2771,0.2557,0.2704,0.2457,0.345,0.3313,0.3355,0.3469,0.3299,0,0,0,0,0]},{"header":{"parameterUnit":"m.s-1","parameterCategory":2,"la1":30.2991,"la2":30.254,"lo1":-89.0895,"lo2":-89.0444,"dy":0.0017,"dx":0.0017,"nx":28,"ny":28,"refTime":"2024-05-23T03:00:00:Z","depth":"2","parameterNumber":3,"parameterNumberName":"V-component_of_CURRENTS"},"data":[0,0,0,0,0,0,0,0,0,0,0,0,0,0,0,0,0,0,0,0,0,0,0,0,0,0,0,0,0,0,0,0,0,0,0,0,0,0,0,0,0,0,0,0,0,0,0,0,0,0,0,0,0,0,0,0,0,0,0.0161,0.0161,0,0.0109,0.0108,0.0108,0.0066,0.0066,0.0066,0.0066,-0.003,-0.0032,-0.0035,0,0,0,0,0,0,0,0,0,0,0,0,0,0.0166,0.0166,0.0161,0.0161,0.016,0.0109,0.0108,0.0108,0.0066,0.0066,0.0066,0.0065,-0.0029,-0.0032,-0.0035,0,0,0,0,0,0,0,0,0,0,0,0,0,0.0143,0.0167,0.0161,0.0135,0.0132,0.0109,0.0108,0.0107,0.0066,0.0066,0.0066,0.0065,-0.0028,-0.0032,-0.0035,-0.0049,0,0,-0.0046,-0.0047,0,0,0,0,0,0,0,0,0.0144,0.0142,0.0139,0.0137,0.0134,0.0095,0.0075,0.0053,0.0067,0.009,0.0066,0.0065,0.0009,0.0003,-0.0008,-0.0053,-0.0057,-0.0046,-0.0048,-0.005,-0.0051,0,0,0,0,0,0,0,0.0146,0.0144,0.0139,0.0139,0.0135,0.0105,0.0102,0.0071,0.005,0.0088,0.0085,0.0082,0.0007,-0.0005,-0.0011,-0.0059,-0.0046,-0.0049,-0.0051,-0.0053,-0.0103,-0.0102,0,0,0,0,0,0,0.0159,0.0146,0.0141,0.0138,0.014,0.0106,0.0102,0.0107,0.0051,0.0043,0.0082,0.008,0.0001,-0.0007,-0.0014,-0.0007,-0.005,-0.0053,-0.0055,-0.0103,-0.0102,-0.0102,0,0,0,0,0,0,0.016,0.016,0.0143,0.0141,0.0137,0.0107,0.0112,0.0106,0.0099,0.0048,0.0039,0.0082,0.0001,-0.0009,-0.0029,-0.0012,-0.0054,-0.0058,-0.0104,-0.0103,-0.0102,-0.0009,0,0,0,0,0,0,0.016,0.016,0.0167,0.0143,0.0138,0.0142,0.0112,0.0105,0.0098,0.0095,0.0045,0.0035,-0.0,-0.0023,-0.0032,-0.0018,-0.006,-0.0105,-0.0104,-0.0102,-0.0013,-0.0005,0.0002,0,0,0,0,0,0.0161,0.0178,0.0167,0.0167,0.0149,0.0143,0.0138,0.0113,0.0099,0.0104,0.0072,0.0037,-0.0021,-0.0025,-0.0036,-0.0022,-0.0106,-0.0104,-0.0103,-0.0017,-0.0007,0.0001,0,0,0,0,0,0,0.0182,0.0175,0.0163,0.0176,0.0165,0.0137,0.0138,0.0122,0.01,0.0095,0.0046,0.0035,0.0023,-0.0011,-0.0015,-0.0033,-0.0069,-0.0069,-0.0,0.0009,0.0016,0.0036,-0.0063,0,0,0,0,0,0.0191,0.0202,0.0186,0.0196,0.0194,0.0167,0.016,0.0146,0.0124,0.0114,0.0081,0.0046,0.0021,0.0007,-0.0025,-0.0033,-0.0072,-0.0032,-0.0024,-0.0017,-0.0008,-0.005,-0.0045,-0.0096,-0.0096,-0.0096,0,0,0.02,0.0198,0.0203,0.0201,0.0187,0.0198,0.0162,0.0161,0.0173,0.0106,0.0109,0.0069,0.0024,0.0016,0.0007,-0.001,-0.0023,-0.0015,-0.0009,-0.0004,-0.0048,-0.0043,-0.0039,-0.0095,-0.0095,-0.0095,0,0,0.0233,0.0225,0.0248,0.0247,0.0239,0.0223,0.0228,0.0208,0.0202,0.0196,0.0155,0.0128,0.0088,0.0063,0.0044,0.0073,0.0017,0.0064,0.012,0.008,0.0084,0.0086,0.0045,0.0044,0.007,0.007,0.007,0,0.0243,0.0274,0.0252,0.0276,0.0284,0.0241,0.027,0.0259,0.0236,0.0239,0.0209,0.0158,0.011,0.011,0.0117,0.009,0.006,0.0091,0.009,0.0092,0.0094,0.005,0.0048,0.0075,0.0074,0.0074,0.0073,0,0.0298,0.0321,0.0335,0.0352,0.0354,0.0371,0.0357,0.0361,0.0339,0.0321,0.0312,0.0249,0.022,0.02,0.0164,0.0162,0.0134,0.0104,0.007,0.0105,0.0057,0.0052,0.0082,0.008,0.0078,0.0077,0,0,0.0329,0.0368,0.0373,0.0402,0.04,0.0413,0.0435,0.0445,0.0474,0.0426,0.0451,0.0387,0.0345,0.0321,0.0271,0.0233,0.0205,0.0181,0.0177,0.0146,0.012,0.0086,0.0077,0.0178,0.0178,0.0178,0.0083,0,0.038,0.0451,0.0448,0.0509,0.0545,0.0526,0.056,0.056,0.0543,0.0554,0.0486,0.0477,0.0395,0.0385,0.0334,0.0246,0.0197,0.0234,0.0086,0.0081,0.0052,0.0072,0.0111,0.0029,0.0078,0.0077,0.0077,0,0.0437,0.0481,0.0555,0.0614,0.0629,0.0653,0.07,0.0728,0.0723,0.0712,0.0676,0.0613,0.0557,0.0478,0.0336,0.0366,0.025,0.0167,0.0161,0.0095,0.0039,0.0,0.0017,0.0068,0.0069,0.0069,0.007,0,0.0487,0.0555,0.062,0.0639,0.0694,0.0729,0.0759,0.0775,0.0826,0.0811,0.083,0.0734,0.0708,0.0554,0.0369,0.0354,0.0207,0.016,0.0017,0.0013,-0.0001,-0.0006,0.0047,0.0048,0.0048,0.0048,0.0048,0,0.0549,0.0602,0.0653,0.0694,0.0793,0.08,0.0897,0.0915,0.0954,0.1029,0.0918,0.0944,0.0727,0.0611,0.0417,0.0213,0.0236,0.0031,-0.0011,0.0031,0.0031,0.0026,0.0025,0.0045,0.0045,0.0046,0.0047,0,0.0598,0.0628,0.0714,0.0787,0.0823,0.0895,0.1007,0.1077,0.1098,0.1192,0.1193,0.1108,0.0961,0.0727,0.0483,0.0295,0.0086,-0.0001,0.0063,0.0029,-0.0097,-0.0092,-0.0167,-0.0169,-0.017,-0.0172,-0.0173,0,0.063,0.0679,0.0788,0.0857,0.0895,0.1005,0.1094,0.1151,0.1233,0.1301,0.1354,0.1241,0.1189,0.0816,0.0463,0.0124,0.0076,-0.0077,-0.0112,-0.0084,-0.0118,-0.011,-0.0104,-0.0097,-0.0097,-0.0097,-0.0098,0,0.0695,0.0727,0.0804,0.0947,0.1046,0.1177,0.1301,0.1392,0.1475,0.1547,0.1615,0.1577,0.1239,0.0904,0.0434,0.0204,-0.0022,-0.0097,-0.0075,-0.0046,-0.0025,-0.0056,-0.005,-0.0101,-0.0101,-0.01,-0.01,-0.01,0.0744,0.0809,0.091,0.1045,0.1171,0.1329,0.145,0.1575,0.1726,0.1849,0.1804,0.1762,0.1381,0.079,0.0374,-0.006,-0.0039,-0.0193,-0.0189,-0.0185,-0.0158,-0.014,-0.0233,-0.0233,-0.0234,-0.0234,-0.0234,0,0.0809,0.0884,0.1006,0.1168,0.1308,0.137,0.1577,0.1692,0.1872,0.1975,0.2024,0.1671,0.1298,0.0855,0.0211,-0.0175,-0.0193,-0.0295,-0.0233,-0.0226,-0.0221,-0.0194,-0.028,-0.0282,-0.0283,-0.0284,0,0,0.0847,0.0966,0.1024,0.1252,0.1373,0.156,0.1686,0.1862,0.1977,0.2069,0.2053,0.1991,0.1452,0.0975,0.0452,0.0082,0.0018,0.0013,0.0095,0.0238,0.0247,-0.0115,-0.0061,0,0,0,0,0]}],[{"header":{"parameterUnit":"m.s-1","parameterCategory":2,"la1":30.2991,"la2":30.254,"lo1":-89.0895,"lo2":-89.0444,"dy":0.0017,"dx":0.0017,"nx":28,"ny":28,"refTime":"2024-05-23T03:00:00:Z","depth":"4","parameterNumber":2,"parameterNumberName":"U-component_of_CURRENTS"},"data":[0,0,0,0,0,0,0,0,0,0,0,0,0,0,0,0,0,0,0,0,0,0,0,0,0,0,0,0,0,0,0,0,0,0,0,0,0,0,0,0,0,0,0,0,0,0,0,0,0,0,0,0,0,0,0,0,0,0,0.2193,0.2194,0,0.2271,0.2272,0.2273,0.2343,0.2344,0.2345,0.2346,0.2446,0.2448,0.245,0,0,0,0,0,0,0,0,0,0,0,0,0,0.2098,0.2099,0.2193,0.2194,0.2195,0.2271,0.2272,0.2273,0.2343,0.2344,0.2346,0.2347,0.2446,0.2448,0.245,0,0,0,0,0,0,0,0,0,0,0,0,0,0.2152,0.21,0.2193,0.2241,0.2246,0.2271,0.2272,0.2273,0.2343,0.2345,0.2346,0.2347,0.2445,0.2447,0.245,0.2435,0,0,0.2458,0.2459,0,0,0,0,0,0,0,0,0.2149,0.2156,0.2233,0.2238,0.2244,0.2301,0.2276,0.2329,0.2343,0.2304,0.2346,0.2348,0.24,0.2406,0.2414,0.244,0.2444,0.2458,0.246,0.2461,0.2461,0,0,0,0,0,0,0,0.2145,0.2153,0.2222,0.2234,0.224,0.2257,0.2266,0.2286,0.2341,0.2308,0.2313,0.2325,0.2403,0.2412,0.2417,0.2446,0.2458,0.246,0.2462,0.2463,0.2615,0.2617,0,0,0,0,0,0,0.2138,0.2149,0.222,0.2225,0.2201,0.2257,0.2268,0.2279,0.2341,0.2352,0.2323,0.2328,0.2407,0.2414,0.2421,0.2537,0.2461,0.2463,0.2465,0.2612,0.2615,0.2618,0,0,0,0,0,0,0.2136,0.2144,0.2216,0.219,0.2201,0.2258,0.227,0.228,0.2338,0.2353,0.2365,0.2377,0.2408,0.2418,0.2485,0.2537,0.2464,0.2467,0.2609,0.2613,0.2617,0.2686,0,0,0,0,0,0,0.2133,0.2142,0.2171,0.219,0.2202,0.2261,0.2269,0.2281,0.234,0.2348,0.2401,0.2409,0.241,0.2482,0.2488,0.2539,0.2469,0.2606,0.2611,0.2615,0.2681,0.2692,0.2701,0,0,0,0,0,0.2129,0.2152,0.2172,0.2182,0.2232,0.2262,0.2271,0.2314,0.2342,0.2371,0.2415,0.241,0.2516,0.2486,0.2492,0.2545,0.2604,0.261,0.2615,0.2676,0.269,0.2701,0,0,0,0,0,0,0.2127,0.2162,0.2184,0.2219,0.2254,0.2276,0.2314,0.234,0.2397,0.2422,0.2436,0.2447,0.2527,0.2527,0.2493,0.2605,0.2562,0.2569,0.2606,0.2619,0.2629,0.2633,0.2471,0,0,0,0,0,0.2138,0.217,0.22,0.2235,0.2256,0.2295,0.2323,0.2353,0.2393,0.2422,0.246,0.2505,0.2546,0.2577,0.2608,0.2664,0.2672,0.2706,0.2716,0.2725,0.2735,0.2798,0.2815,0.2636,0.2636,0.2636,0,0,0.2148,0.2173,0.2194,0.2238,0.2273,0.2307,0.2317,0.2373,0.2417,0.2422,0.2512,0.2545,0.257,0.2637,0.2674,0.265,0.278,0.2732,0.2739,0.2745,0.2806,0.2823,0.2838,0.264,0.2639,0.2639,0,0,0.2167,0.2209,0.2239,0.2271,0.2329,0.235,0.2376,0.2428,0.2475,0.2546,0.257,0.2637,0.2697,0.2727,0.2746,0.2832,0.2833,0.2854,0.2911,0.2972,0.2987,0.3,0.3028,0.3043,0.2859,0.2859,0.2859,0,0.2185,0.2219,0.2254,0.2289,0.2325,0.2374,0.2414,0.2459,0.2532,0.2581,0.259,0.2715,0.2736,0.2818,0.2853,0.2856,0.2884,0.2857,0.2984,0.2998,0.301,0.3036,0.3052,0.2863,0.2863,0.2862,0.2862,0,0.2207,0.2256,0.228,0.2339,0.2382,0.2427,0.2485,0.2553,0.2616,0.266,0.2776,0.2812,0.2889,0.2908,0.2907,0.3014,0.3004,0.2988,0.2948,0.3032,0.3054,0.3069,0.2869,0.2867,0.2866,0.2865,0,0,0.2189,0.2278,0.2292,0.2329,0.2416,0.2444,0.2539,0.2624,0.2698,0.2783,0.2878,0.2957,0.3001,0.3027,0.3047,0.3097,0.3201,0.3091,0.3092,0.311,0.3332,0.3123,0.3119,0.322,0.3223,0.3226,0.3309,0,0.2202,0.2266,0.2315,0.239,0.2427,0.251,0.2585,0.2678,0.2767,0.2871,0.2945,0.304,0.3039,0.3094,0.3151,0.3197,0.3247,0.3179,0.3256,0.3257,0.3055,0.3132,0.3236,0.3321,0.3324,0.3327,0.3328,0,0.2198,0.2245,0.2318,0.2417,0.2445,0.2506,0.2644,0.2722,0.2875,0.2948,0.3067,0.313,0.3247,0.3218,0.335,0.3317,0.3339,0.3354,0.3357,0.3148,0.3077,0.3223,0.3355,0.3353,0.3351,0.3349,0.3348,0,0.2139,0.2242,0.2302,0.2335,0.2457,0.2528,0.2612,0.2761,0.2849,0.3019,0.3103,0.3236,0.3326,0.3391,0.3449,0.3422,0.3565,0.3521,0.3349,0.3334,0.3465,0.345,0.3605,0.3605,0.3605,0.3604,0.3604,0,0.2103,0.2154,0.2288,0.2316,0.2405,0.2512,0.2634,0.2737,0.2906,0.3003,0.3153,0.3236,0.3382,0.3479,0.3498,0.3473,0.3614,0.337,0.3349,0.3491,0.3478,0.3475,0.3459,0.3607,0.3607,0.3606,0.3606,0,0.2016,0.2105,0.2177,0.2322,0.2378,0.2447,0.2638,0.2712,0.2895,0.3032,0.3097,0.3289,0.34,0.3507,0.3611,0.3515,0.3518,0.3472,0.3627,0.3611,0.323,0.3217,0.3271,0.3264,0.3259,0.3254,0.325,0,0.1968,0.2002,0.2162,0.2211,0.2286,0.2414,0.2492,0.2685,0.2763,0.3025,0.306,0.3259,0.3356,0.3341,0.3459,0.348,0.3439,0.3407,0.3299,0.3225,0.3201,0.3196,0.3191,0.3241,0.324,0.3238,0.3237,0,0.1874,0.1955,0.2013,0.2121,0.221,0.2293,0.2426,0.2465,0.2678,0.2875,0.2956,0.3023,0.3139,0.3206,0.3258,0.3262,0.3405,0.3347,0.3357,0.3256,0.319,0.317,0.3171,0.3218,0.3221,0.3222,0.3224,0,0.1809,0.1827,0.1923,0.1995,0.2097,0.2127,0.2221,0.2307,0.2413,0.2691,0.2711,0.2916,0.3104,0.3094,0.314,0.3136,0.3073,0.2947,0.2977,0.2999,0.2871,0.2745,0.2627,0,0,0,0,0,0.173,0.1731,0.1789,0.1846,0.1938,0.2001,0.2146,0.2243,0.2448,0.2434,0.2569,0.2661,0.2739,0.2845,0.2785,0.3012,0.3081,0.2926,0.295,0.3111,0.3134,0.3007,0,0,0,0,0,0,0.1672,0.1721,0.1731,0.1701,0.1717,0.1796,0.1877,0.2021,0.2026,0.2254,0.2314,0.2492,0.2611,0.2752,0.2734,0.2765,0.2721,0.3061,0.3053,0.3099,0.3119,0.3137,0.3014,0,0,0,0,0]},{"header":{"parameterUnit":"m.s-1","parameterCategory":2,"la1":30.2991,"la2":30.254,"lo1":-89.0895,"lo2":-89.0444,"dy":0.0017,"dx":0.0017,"nx":28,"ny":28,"refTime":"2024-05-23T03:00:00:Z","depth":"4","parameterNumber":3,"parameterNumberName":"V-component_of_CURRENTS"},"data":[0,0,0,0,0,0,0,0,0,0,0,0,0,0,0,0,0,0,0,0,0,0,0,0,0,0,0,0,0,0,0,0,0,0,0,0,0,0,0,0,0,0,0,0,0,0,0,0,0,0,0,0,0,0,0,0,0,0,0.0108,0.0108,0,0.0074,0.0074,0.0073,0.0045,0.0045,0.0045,0.0044,-0.0024,-0.0025,-0.0027,0,0,0,0,0,0,0,0,0,0,0,0,0,0.0108,0.0109,0.0108,0.0108,0.0108,0.0074,0.0074,0.0073,0.0045,0.0045,0.0045,0.0044,-0.0023,-0.0025,-0.0027,0,0,0,0,0,0,0,0,0,0,0,0,0,0.0094,0.0109,0.0108,0.0091,0.0089,0.0074,0.0074,0.0073,0.0045,0.0045,0.0044,0.0044,-0.0022,-0.0025,-0.0027,-0.0036,0,0,-0.0035,-0.0036,0,0,0,0,0,0,0,0,0.0095,0.0094,0.0093,0.0092,0.009,0.0064,0.0049,0.0035,0.0045,0.006,0.0044,0.0044,0.0004,-0.0001,-0.0008,-0.0039,-0.0042,-0.0035,-0.0036,-0.0037,-0.0038,0,0,0,0,0,0,0,0.0096,0.0095,0.0094,0.0093,0.0091,0.007,0.0068,0.0046,0.0033,0.0059,0.0057,0.0055,0.0002,-0.0005,-0.001,-0.0043,-0.0035,-0.0037,-0.0038,-0.0039,-0.0074,-0.0074,0,0,0,0,0,0,0.0105,0.0096,0.0095,0.0093,0.0093,0.0071,0.0068,0.0072,0.0034,0.0028,0.0056,0.0054,-0.0001,-0.0007,-0.0012,-0.0002,-0.0037,-0.004,-0.0041,-0.0075,-0.0074,-0.0073,0,0,0,0,0,0,0.0105,0.0105,0.0096,0.0094,0.0092,0.0071,0.0076,0.0071,0.0068,0.0032,0.0025,0.0057,-0.0001,-0.0009,-0.0021,-0.0006,-0.0041,-0.0043,-0.0075,-0.0075,-0.0074,0.0002,0,0,0,0,0,0,0.0105,0.0106,0.0111,0.0095,0.0092,0.0098,0.0076,0.0071,0.0068,0.0065,0.0031,0.0024,-0.0002,-0.0017,-0.0024,-0.001,-0.0045,-0.0076,-0.0075,-0.0074,-0.0001,0.0006,0.0011,0,0,0,0,0,0.0106,0.0119,0.0112,0.0112,0.0101,0.0099,0.0096,0.0079,0.0068,0.0073,0.0051,0.0025,-0.0016,-0.0019,-0.0026,-0.0013,-0.0077,-0.0075,-0.0074,-0.0004,0.0004,0.0011,0,0,0,0,0,0,0.0121,0.0117,0.0109,0.012,0.0113,0.0095,0.0097,0.0085,0.0071,0.0068,0.0032,0.0024,0.0018,-0.0009,-0.0011,-0.0021,-0.0051,-0.0051,0.0006,0.0013,0.0019,0.0031,-0.0047,0,0,0,0,0,0.0128,0.0137,0.0127,0.0135,0.0135,0.0116,0.0113,0.0103,0.0088,0.0082,0.0059,0.0033,0.0016,0.0007,-0.0016,-0.002,-0.0057,-0.0017,-0.0011,-0.0006,-0.0001,-0.0043,-0.004,-0.007,-0.007,-0.007,0,0,0.0136,0.0134,0.0139,0.0139,0.0131,0.0141,0.0114,0.0115,0.0127,0.0076,0.0082,0.0052,0.0019,0.0016,0.001,-0.0003,-0.0017,-0.0004,0.0001,0.0002,-0.0041,-0.0038,-0.0036,-0.0069,-0.0069,-0.0069,0,0,0.016,0.0156,0.0174,0.0175,0.0171,0.0161,0.0165,0.0153,0.015,0.0149,0.0118,0.0098,0.0072,0.0052,0.0039,0.0062,0.0015,0.0058,0.0101,0.0061,0.0063,0.0064,0.0022,0.0018,0.0063,0.0063,0.0063,0,0.0169,0.0193,0.0178,0.0197,0.0206,0.0175,0.0199,0.0193,0.0179,0.0181,0.016,0.0124,0.0089,0.0089,0.0096,0.0076,0.0046,0.0079,0.0069,0.007,0.007,0.0025,0.0021,0.0067,0.0067,0.0066,0.0066,0,0.021,0.0229,0.0241,0.0257,0.0262,0.0277,0.0269,0.0275,0.0261,0.0247,0.0242,0.0196,0.0174,0.016,0.0134,0.0128,0.0103,0.0081,0.0053,0.0078,0.0029,0.0023,0.0072,0.0071,0.007,0.0069,0,0,0.0231,0.0264,0.0269,0.0294,0.0298,0.031,0.0331,0.0341,0.0361,0.0329,0.0345,0.0302,0.0269,0.0251,0.0216,0.018,0.0146,0.0138,0.0134,0.01,0.0058,0.0039,0.003,0.0126,0.0125,0.0125,0.0025,0,0.0268,0.0324,0.0327,0.0378,0.0407,0.0398,0.0427,0.043,0.0416,0.0421,0.037,0.0364,0.0309,0.0303,0.0258,0.0178,0.0135,0.0176,0.0036,0.0032,0.0015,0.0024,0.0123,0.002,0.0018,0.0017,0.0017,0,0.0309,0.0344,0.0404,0.0456,0.0469,0.0493,0.0531,0.0556,0.0548,0.0537,0.051,0.0463,0.0415,0.0361,0.0234,0.0266,0.0169,0.0097,0.0091,0.0043,0.0001,-0.0012,0.0005,0.0006,0.0007,0.0008,0.0008,0,0.0339,0.0398,0.0452,0.0469,0.0519,0.0551,0.0579,0.059,0.0627,0.0612,0.0619,0.0545,0.0516,0.0394,0.0241,0.0239,0.0089,0.0063,-0.0048,-0.0051,-0.0037,-0.0038,-0.0036,-0.0036,-0.0036,-0.0036,-0.0035,0,0.0379,0.0424,0.0475,0.0507,0.0588,0.0602,0.0678,0.0693,0.0719,0.0763,0.0686,0.0688,0.0523,0.0416,0.0267,0.0094,0.0103,-0.0041,-0.0076,-0.0003,0.0001,-0.0042,-0.0041,-0.0039,-0.0039,-0.0038,-0.0037,0,0.0405,0.0436,0.0506,0.0573,0.0607,0.0666,0.076,0.0808,0.0823,0.0876,0.0878,0.0794,0.0656,0.0475,0.0267,0.0137,-0.0033,-0.0102,-0.0008,-0.0037,-0.0154,-0.0149,-0.0229,-0.0231,-0.0232,-0.0233,-0.0234,0,0.0421,0.046,0.0558,0.0614,0.065,0.0743,0.0814,0.0863,0.0914,0.0941,0.0966,0.0856,0.0773,0.0478,0.0269,-0.0018,-0.0067,-0.0162,-0.0163,-0.0146,-0.0173,-0.0166,-0.0158,-0.0236,-0.0236,-0.0236,-0.0237,0,0.0453,0.0486,0.0548,0.0666,0.0749,0.0853,0.0949,0.0996,0.1054,0.1063,0.1044,0.0893,0.0731,0.0488,0.026,0.0052,-0.01,-0.0176,-0.0175,-0.0177,-0.0155,-0.0179,-0.0171,-0.0241,-0.024,-0.024,-0.024,0,0.0476,0.0523,0.0607,0.0714,0.0824,0.0931,0.0982,0.1046,0.1102,0.1122,0.111,0.0938,0.0837,0.0523,0.0316,0.0107,0.0047,-0.0029,-0.0037,-0.0035,0.0044,0.0101,0.0066,0,0,0,0,0,0.0499,0.0557,0.0651,0.077,0.0877,0.0951,0.1062,0.11,0.1151,0.115,0.1137,0.0988,0.0689,0.0558,0.0347,0.0267,-0.0007,0.0008,-0.0102,-0.0265,-0.026,-0.0204,0,0,0,0,0,0,0.0515,0.0601,0.065,0.0796,0.0885,0.1014,0.109,0.1126,0.1127,0.114,0.0988,0.0921,0.0629,0.0814,0.0341,0.0276,0.0173,-0.0128,-0.0134,-0.0268,-0.0264,-0.026,-0.02,0,0,0,0,0]}]]